Home > Weather > Passo Fundo > Past weeks

Flag for Brazil Weather for the Past 2 Weeks in Passo Fundo, Rio Grande do Sul, Brazil

Now
55 °F

Fog.


Feels Like: 55 °F
Forecast: 54 / 61 °F
Wind: No wind

Location: Porto Alegre Aero-Porto

Current Time: May 6, 2016 at 4:37:17 AM

Latest Report: May 6, 2016 at 4:00 AM


Visibility: 1 mi

Pressure: N/A

Humidity: 100%

Dew Point: 55 °F

Location of Passo FundoLocation

Historic Weather in Passo Fundo — Graph

°F

Passo Fundo Temperature Yesterday

Maximum temperature yesterday: 66 °F (at 2:00 PM)
Minimum temperature yesterday: 52 °F (at 4:00 AM)
Average temperature yesterday: 58 °F

High & Low Weather Summary for the Past Weeks

 TemperatureHumidityPressure
High86 °F (Apr 21, 11:00 AM)100% (Apr 21, 3:00 AM)30.27 "Hg (Apr 21, 3:00 AM)
Low32 °F (Apr 24, 11:00 PM)27% (Apr 21, 2:00 PM)29.53 "Hg (Apr 25, 4:00 PM)
Average61 °F82%30.04 "Hg
* Reported Apr 21 3:00 AM — May 6 3:00 AM, Passo Fundo, Weather by CustomWeather, © 2016

Note: Actual official high and low records may vary slightly from our data, if they occured in-between our weather recording intervals... More about our weather records

Advertising

Passo Fundo Weather History for the Previous 24 Hours

Scroll right to see more
 ConditionsComfort  
Time TempWeatherWind HumidityBarometerVisibility
3:00 AM
Fri, May 6
55 °FFog.1 mph100%30.12 "Hg2 mi
2:00 AM55 °FFog.5 mph100%30.12 "Hg1 mi
1:00 AM54 °FFog.3 mph100%30.12 "Hg3 mi
12:00 AM54 °FPassing clouds.6 mph94%30.15 "Hg4 mi
11:00 PM
Thu, May 5
57 °FClear.6 mph88%30.15 "Hg10 mi
10:00 PM59 °FClear.6 mph88%30.18 "Hg10 mi
9:00 PM59 °FClear.7 mph88%30.18 "Hg10 mi
8:00 PM59 °FClear.7 mph82%30.15 "Hg10 mi
7:00 PM59 °FClear.1 mph82%30.15 "Hg10 mi
6:00 PM61 °FClear.8 mph77%30.15 "Hg10 mi
5:00 PM64 °FClear.7 mph73%30.12 "Hg10 mi
4:00 PM66 °FPassing clouds.7 mph68%30.12 "HgN/A
3:00 PM66 °FPassing clouds.6 mph68%30.12 "HgN/A
2:00 PM66 °FScattered clouds.No wind64%30.12 "HgN/A
1:00 PM64 °FPartly sunny.2 mph68%30.18 "HgN/A
12:00 PM63 °FPartly sunny.3 mph77%30.21 "HgN/A
11:00 AM61 °FBroken clouds.2 mph83%30.21 "HgN/A
10:00 AM59 °FFog.2 mph88%30.21 "Hg3 mi
9:00 AM57 °FFog.2 mph94%30.18 "Hg2 mi
8:00 AM55 °FFog.2 mph100%N/A1 mi
7:00 AM54 °FFog.3 mph100%N/A1 mi
6:00 AM52 °FFog.No wind100%N/A1 mi
5:00 AM52 °FFog.No wind100%30.12 "Hg1 mi
4:00 AM52 °FClear.No wind100%30.12 "Hg4 mi
Weather by CustomWeather, © 2016

See weather overviewHow to use our weather pages